This demonstration page uses our WeatherBlox Daily Observations layout. Learn more.

Left ArrowRight Arrow

34.02893, -84.19858

Hourly Observations for July 23, 2021

Temp ( °F °C ) Dew Point ( °F °C ) Humidity (%) Winds ( mph kmh ) Pressure ( in mb ) Visibility ( mi km ) Precip ( " mm )
12:53 am 00:53 Hazy 75 23.9 70 21.1 84 84 Calm 30.07 1018 6 10 0.00 0.00
1:53 am 01:53 Clear with Mist and Fog 73 22.8 70 21.1 90 90 Calm 30.07 1018 5 8 0.00 0.00
2:53 am 02:53 Clear with Mist and Fog 72 22.2 70 21.1 94 94 Calm 30.07 1018 5 8 0.00 0.00
3:53 am 03:53 Clear with Mist and Fog 72 22.2 70 21.1 94 94 Calm 30.06 1018 4 6 0.00 0.00
4:53 am 04:53 Clear with Mist and Fog 72 22.2 70 21.1 94 94 Calm 30.06 1018 5 8 0.00 0.00
5:53 am 05:53 Clear with Mist and Fog 71 21.7 69 20.6 94 94 Calm 30.07 1018 5 8 0.00 0.00
6:53 am 06:53 Sunny with Mist and Fog 71 21.7 70 21.1 96 96 Calm 30.08 1019 3 5 0.00 0.00
7:20 am 07:20 Sunny with Mist and Fog 71 21.7 70 21.1 96 96 N 3 6 30.11 1020 3 4 0.00 0.00
7:27 am 07:27 Sunny with Mist and Fog 72 22.2 70 21.1 94 94 N 3 6 30.11 1020 3 5 0.00 0.00
7:53 am 07:53 Sunny with Mist and Fog 73 22.8 71 21.7 94 94 N 5 7 30.09 1019 3 5 0.00 0.00
8:53 am 08:53 Hazy 77 25 72 22.2 85 85 Calm 30.10 1019 4 6 0.00 0.00
9:53 am 09:53 Mostly Cloudy with Haze 79 26.1 72 22.2 79 79 Calm 30.11 1020 5 8 0.00 0.00
10:53 am 10:53 Hazy 83 28.3 74 23.3 74 74 Calm 30.11 1020 5 8 0.00 0.00
11:53 am 11:53 Hazy 86 30 74 23.3 67 67 NNE 3 6 30.10 1019 6 10 0.00 0.00
12:53 pm 12:53 Mostly Cloudy 87 30.6 73 22.8 63 63 Calm 30.08 1019 7 11 0.00 0.00
1:53 pm 13:53 Partly Cloudy 89 31.7 73 22.8 59 59 VRB 5 7 30.06 1018 7 11 0.00 0.00
2:53 pm 14:53 Mostly Cloudy 88 31.1 71 21.7 57 57 NNW 3 6 30.04 1017 7 11 0.00 0.00
3:53 pm 15:53 Cloudy 86 30 72 22.2 63 63 Calm 30.03 1017 9 14 0.00 0.00
4:53 pm 16:53 Mostly Cloudy with Nearby Thunderstorms 89 31.7 72 22.2 57 57 VRB 3 6 30.01 1016 10 16 0.00 0.00
5:39 pm 17:39 Cloudy with Thunderstorms 81 27.2 75 23.9 82 82 undefined N/A 30.03 1017 3 4 0.08 2.03
5:43 pm 17:43 Cloudy with Strong Thunderstorms 79 26.1 75 23.9 88 88 SSW 31 50 30.04 1017 1 1 0.25 6.35
5:53 pm 17:53 Cloudy with Strong Thunderstorms 74 23.3 72 22.2 94 94 W 24 39 30.05 1018 1 1 0.77 19.56
5:56 pm 17:56 Cloudy with Strong Thunderstorms 73 22.8 70 21.1 90 90 WSW 22 35 30.05 1018 1 1 0.05 1.27
6:03 pm 18:03 Cloudy with Strong Thunderstorms 75 23.9 70 21.1 84 84 SW 21 33 30.06 1018 1 1 0.38 9.65
6:06 pm 18:06 Cloudy with Strong Thunderstorms 74 23.3 71 21.7 91 91 SW 26 43 30.08 1019 0 0 0.54 13.72
6:28 pm 18:28 Cloudy with Nearby Thunderstorms 73 22.8 71 21.7 94 94 SSW 16 26 30.05 1018 1 1 1.61 40.89
6:31 pm 18:31 Cloudy with Nearby Thunderstorms 73 22.8 71 21.7 94 94 SSW 14 22 30.05 1018 1 1 1.63 41.40
6:34 pm 18:34 Cloudy with Nearby Thunderstorms 74 23.3 72 22.2 94 94 SSW 13 20 30.05 1018 3 5 1.64 41.66
6:47 pm 18:47 Cloudy with Light Rain 73 23 72 22 94 94 SW 10 17 30.04 1017 3 5 1.64 41.66
6:53 pm 18:53 Mostly Cloudy 75 23.9 72 22.2 90 90 S 5 7 30.04 1017 10 16 1.64 41.66
7:09 pm 19:09 Partly Cloudy with Nearby Thunderstorms 76 24.4 72 22.2 88 88 Calm 30.04 1017 10 16 0.00 0.00
7:30 pm 19:30 Mostly Cloudy 77 25 71 21.7 82 82 N 5 7 30.05 1017 10 16 0.00 0.00
7:53 pm 19:53 Mostly Cloudy with Nearby Thunderstorms 77 25 72 22.2 85 85 VRB 5 7 30.05 1018 9 14 0.00 0.00
8:02 pm 20:02 Mostly Cloudy with Light Rain 77 25 73 22.8 88 88 Calm 30.06 1018 10 16 0.00 0.00
8:53 pm 20:53 Clear 75 23.9 74 23.3 96 96 Calm 30.06 1018 7 11 0.00 0.00
9:53 pm 21:53 Clear with Mist and Fog 74 23.3 73 22.8 97 97 Calm 30.06 1018 3 5 0.00 0.00
10:53 pm 22:53 Clear with Mist and Fog 74 23.3 73 22.8 97 97 Calm 30.05 1018 5 8 0.00 0.00
11:53 pm 23:53 Clear with Mist and Fog 73 22.8 73 22.8 100 100 Calm 30.04 1017 6 10 0.00 0.00

Powered by AerisWeather